Regional Weather Roundup
Issued by NWS Spokane, WA

Home | Current Version | Previous Version | Text Only | Print | Product List | Glossary On
Versions: 1 2 3 4 5 6 7 8 9 10 11 12 13 14 15 16 17 18 19 20 21 22 23 24 25 26 27 28 29 30 31 32 33 34 35 36 37 38 39 40 41 42 43 44 45 46 47 48 49 50
000
NZUS01 KOTX 210605
RWROTX
EASTERN WASHINGTON/NORTHERN IDAHO ROUNDUP
NATIONAL WEATHER SERVICE, SPOKANE WA
1100 PM PDT MON APR 20 2015

Note: "fair" indicated few or no clouds below 12,000 feet with no
significant weather and/or obstructions to visibility.

...NORTHEAST WASHINGTON AND NORTHERN IDAHO PANHANDLE...

CITY           SKY/WX    TMP DP  RH WIND       PRES   REMARKS
SPOKANE INTL   PTCLDY    54  36  50 SW8       29.82S
SPOKANE DOWNTO CLEAR     51  38  60 NE3       29.82S
COEUR D ALENE  CLEAR     48  37  66 E5        29.84S
DEER PARK      CLEAR     43  36  76 CALM      29.82S
SANDPOINT      CLEAR     45  37  76 CALM      29.82S
BONNERS FERRY  FAIR      50  37  62 CALM      29.82R

...SOUTHEAST WASHINGTON AND SOUTHERN IDAHO PANHANDLE...

CITY           SKY/WX    TMP DP  RH WIND       PRES   REMARKS
WALLA WALLA    CLEAR     60  41  49 E9        29.79F
PULLMAN/MOSCOW CLEAR     46  36  68 CALM      29.85F
LEWISTON       CLEAR     58  35  42 S7        29.81S
LOWELL           N/A     47  41  80 N3        29.87R

...COLUMBIA BASIN...

CITY           SKY/WX    TMP DP  RH WIND       PRES   REMARKS
EPHRATA        CLEAR     59  35  40 W5        29.78F
MOSES LAKE     CLEAR     61  36  39 S5        29.79S
TRI CITIES     CLEAR     49  44  83 NE3       29.78S
HERMISTON      CLEAR     54  36  50 S7        29.78S
PENDLETON      CLEAR     52  38  58 SE9       29.80F

...EAST SLOPES CASCADES...

CITY           SKY/WX    TMP DP  RH WIND       PRES   REMARKS
THE DALLES     CLEAR     56  40  55 E8        29.78S
YAKIMA         CLEAR     58  38  47 W9        29.80S
ELLENSBURG     CLEAR     56  39  53 NW12      29.82S
WENATCHEE      CLEAR     63  36  36 NE5       29.79R
OMAK           CLEAR     57  37  47 W6        29.78S

...SOUTHERN BRITISH COLUMBIA...

CITY           SKY/WX    TMP DP  RH WIND       PRES   REMARKS

...WESTERN MONTANA...

CITY           SKY/WX    TMP DP  RH WIND       PRES   REMARKS
MISSOULA       CLEAR     45  31  58 CALM      29.85S

...NEIGHBORING CITIES...

CITY           SKY/WX    TMP DP  RH WIND       PRES   REMARKS
SEATTLE        PTCLDY    63  38  39 NE10      29.86S



USA.gov is the U.S. government's official web portal to all federal, state and local government web resources and services.